#timestamp,LO_Frequency,Hit,StdDev 
1663801215.2,286046999.2,N
1663801235.1,286046999.6,N
1663801236.0,286046999.6,N
1663801255.8,286046999.4,N
1663801275.7,286046998.5,N
1663801295.5,286046999.4,N
1663801315.3,286046998.7,N
1663801335.2,286046999.0,N
1663801355.0,286046999.1,N
1663801355.9,286046999.1,N
1663801375.8,286046997.0,N
1663801395.6,286046997.2,N
1663801415.4,286046997.4,N
1663801435.3,286046998.0,N
1663801455.1,286046997.3,N
1663801475.8,286046998.0,N
1663801495.7,286046997.4,N
1663801515.5,286046995.0,Y
1663801535.4,286046998.9,P
1663801555.2,286046997.0,P
1663801575.0,286046997.3,P
1663801575.9,286046997.3,Y
1663801595.8,286046998.3,P
1663801615.6,286046998.7,P
1663801635.4,286047001.1,P
1663801655.3,286047000.1,N
1663801675.1,286047000.6,N
1663801695.9,286047002.3,N
1663801715.7,286047000.7,N
1663801735.5,286047000.5,N
1663801755.4,286047000.1,N
1663801775.2,286046999.9,N
1663801795.0,286047000.5,N
1663801795.9,286047000.5,N
1663801815.8,286047002.4,N
1663801835.6,286047002.6,N
1663801855.5,286047000.1,N
1663801875.3,286047002.6,N
1663801895.1,286047002.4,N
1663801915.9,286047001.0,N
1663801935.7,286047001.0,N
1663801955.6,286047001.1,N
1663801975.4,286046998.3,N
1663801995.2,286047000.8,N
1663802015.1,286046999.8,N
1663802016.0,286046999.8,N
1663802035.8,286047000.4,N
1663802055.6,286047002.6,N
1663802075.5,286046999.8,N
1663802095.3,286047000.7,N
1663802115.2,286047000.8,N
1663802135.9,286046999.9,N
1663802155.7,286046998.2,N
1663802175.6,286046998.1,N
1663802195.4,286047001.2,N
1663802215.2,286046998.3,N
1663802235.1,286046998.9,N
1663802236.0,286046998.9,N
1663802255.8,286046998.6,N
1663802275.7,286046998.1,N
1663802295.5,286046999.3,N
1663802315.3,286046999.0,N
1663802335.2,286046998.8,N
1663802355.0,286046996.6,N
1663802355.9,286046996.6,N
1663802375.7,286046999.3,N
1663802395.6,286046999.5,N
1663802415.4,286046998.2,N
1663802435.3,286046998.6,N
1663802455.1,286046999.2,N
1663802456.0,286046999.2,N
1663802475.8,286047000.8,N
1663802495.7,286046998.5,N
1663802515.5,286046997.2,N
1663802535.3,286046999.5,N
1663802555.2,286046998.8,N
1663802575.0,286046999.1,N
1663802575.9,286046999.1,N
1663802595.8,286046998.5,N
1663802615.6,286046998.7,N
1663802635.4,286046998.7,N
1663802655.3,286047000.9,N
1663802675.1,286047001.0,N
1663802695.8,286047000.8,N
1663802715.7,286046998.1,N
1663802735.5,286046998.7,N
1663802755.4,286046998.5,N
1663802775.2,286046998.8,N
1663802795.0,286046998.8,N
1663802795.9,286046998.8,N
1663802815.8,286046999.1,N
1663802835.6,286046997.1,N
1663802855.4,286046997.0,N
1663802875.3,286046997.6,N
1663802895.1,286046997.5,N
1663802915.9,286046997.8,N
1663802935.7,286046999.1,N
1663802955.5,286046996.5,Y
1663802975.4,286046998.1,P
1663802995.2,286046998.7,P
1663803015.0,286046998.5,P
1663803016.0,286046998.5,Y
1663803035.8,286047000.3,P
1663803055.6,286046998.7,N
1663803075.5,286046999.4,N
1663803095.3,286046998.8,N
1663803115.2,286046998.9,N
1663803135.9,286046998.7,N
1663803155.7,286046998.2,Y
1663803175.6,286047000.5,P
1663803195.4,286046999.9,N
1663803215.3,286047000.9,N
1663803235.1,286046997.6,Y
1663803236.0,286046997.6,P
1663803255.8,286046997.7,N
1663803275.7,286046996.7,N
1663803295.5,286046996.8,N
1663803315.4,286046997.1,N
1663803335.2,286046996.6,N
1663803355.0,286046998.1,N
1663803355.9,286046998.1,N
1663803375.8,286047001.6,N
1663803395.6,286046999.8,N
1663803415.4,286047000.5,N
1663803435.3,286047001.0,N
1663803455.1,286047000.4,N
1663803475.9,286047000.2,N
1663803495.7,286047002.0,N
1663803515.5,286047001.7,N
1663803535.4,286047004.0,N
1663803555.2,286047005.9,N
1663803575.1,286047005.9,N
1663803576.0,286047005.9,N
1663803595.8,286047005.3,N
1663803615.6,286047005.5,N
1663803635.5,286047005.7,N
1663803655.3,286047005.9,N
1663803675.1,286047005.8,N
1663803695.9,286047005.8,N
1663803715.7,286047005.6,N
1663803735.6,286047005.7,N
1663803755.4,286047003.1,N
1663803775.2,286047000.2,N
1663803795.1,286047004.3,N
1663803796.0,286047004.3,N
1663803815.8,286047003.2,N
1663803835.7,286047002.9,N
1663803855.5,286047005.4,N
1663803875.4,286047005.9,N
1663803895.2,286047004.2,N
1663803915.0,286047004.0,N
1663803915.9,286047004.0,N
1663803935.8,286047001.6,N
1663803955.6,286047003.9,N
1663803975.4,286046999.7,N
1663803995.3,286046999.8,N
1663804015.1,286047000.2,N
1663804035.9,286047000.1,N
1663804055.7,286047000.0,N
1663804075.5,286047000.0,N
1663804095.4,286047001.8,N
1663804115.2,286047003.5,N
1663804135.1,286047003.4,N
1663804136.0,286047003.4,N
1663804155.8,286047001.3,N
1663804175.6,286047005.8,N
1663804195.5,286047005.1,N
1663804215.3,286047007.5,Y
1663804235.2,286047004.3,P
1663804255.0,286047001.6,N
1663804255.9,286047001.6,N
1663804275.7,286047001.8,N
1663804295.6,286047002.1,N
1663804345.5,286046997.1,E
1663804355.4,286046998.8,N
1663804375.2,286047001.6,P
1663804395.0,286047001.3,N
1663804396.0,286047001.3,N
1663804415.8,286046999.9,N
1663804435.6,286046999.7,N
1663804455.5,286047002.1,N
1663804475.3,286047003.4,Y
1663804495.1,286047005.4,P
1663804515.9,286047003.7,N
1663804535.7,286047002.2,N
1663804555.6,286047000.9,N
1663804575.4,286047000.0,N
1663804595.2,286047001.4,N
1663804615.1,286047002.7,N
1663804616.0,286047002.7,N
1663804635.8,286047001.9,N
1663804655.6,286046998.5,N
1663804675.5,286047001.1,N
1663804695.3,286047000.6,N
1663804715.2,286047001.5,N
1663804735.9,286046999.7,N
1663804755.7,286047000.0,N
1663804775.6,286047000.3,N
1663804795.4,286047000.3,N
